North Adams, MA

3:46 AM EST on February 21, 2017 (GMT -0500)
Harriman And West

Weather History for KAQW - November, 2012

Change the Weather History Date:

Wednesday, November 14, 2012

  Actual Average Record
Temperature  
Mean Temperature 34 °F -  
Max Temperature 44 °F 44 °F 63 °F (2008)
Min Temperature 23 °F 28 °F 16 °F (1996)
Degree Days  
Heating Degree Days 32    
Moisture  
Dew Point 22 °F    
Average Humidity 70    
Maximum Humidity 89    
Minimum Humidity 42    
Precipitation  
Precipitation 0.00 in - - ()
Sea Level Pressure  
Sea Level Pressure 30.53 in    
Wind  
Wind Speed 1 mph (West)    
Max Wind Speed 8 mph    
Max Gust Speed -    
Visibility 10 miles    
Events      
Averages and records for this station are not official NWS values.
T = Trace of Precipitation, MM = Missing Value Source: NWS Daily Summary

Daily Weather History Graph

Daily Weather History Graph

Search for Another Location

Airport or City:

Trip Planner

Search our weather history database for the weather conditions in past years. The results will help you decide how hot, cold, wet, or windy it might be!

Date:

Astronomy

Nov. 14, 2012 Rise Set
Actual Time 6:43 AM EST 4:30 PM EST
Civil Twilight 6:13 AM EST 5:00 PM EST
Nautical Twilight 5:39 AM EST 5:34 PM EST
Astronomical Twilight 5:05 AM EST 6:08 PM EST
Moon 7:31 AM EST (11/14) 5:14 PM EST (11/14)
Length of Visible Light 10h 47m
Length of Day
9h 46m
New Moon, 1% of the Moon is Illuminated
Nov 14
New Moon
Nov 20
First Quarter
Nov 28
Full
Dec 6
Last Quarter
Dec 13
New

Hourly Weather History & Observations

Time (EST) Temp. Windchill Dew Point Humidity Pressure Visibility Wind Dir Wind Speed Gust Speed Precip Events Conditions
12:52 AM 30.9 °F - 25.0 °F 79% 30.48 in 10.0 mi Calm Calm - N/A   Clear
1:52 AM 28.9 °F - 25.0 °F 85% 30.49 in 10.0 mi Calm Calm - N/A   Clear
2:52 AM 27.0 °F - 24.1 °F 89% 30.50 in 10.0 mi Calm Calm - N/A   Clear
3:52 AM 27.0 °F - 23.0 °F 85% 30.51 in 10.0 mi Calm Calm - N/A   Clear
4:52 AM 25.0 °F - 21.9 °F 88% 30.53 in 10.0 mi Calm Calm - N/A   Clear
5:52 AM 25.0 °F - 21.9 °F 88% 30.55 in 10.0 mi Calm Calm - N/A   Clear
6:52 AM 25.0 °F - 21.0 °F 85% 30.57 in 10.0 mi Calm Calm - N/A   Clear
7:52 AM 27.0 °F - 24.1 °F 89% 30.58 in 10.0 mi Calm Calm - N/A   Clear
8:52 AM 33.1 °F - 26.1 °F 75% 30.58 in 10.0 mi Calm Calm - N/A   Clear
9:52 AM 36.0 °F 31.1 °F 23.0 °F 59% 30.58 in 10.0 mi SW 5.8 mph - N/A   Clear
10:52 AM 39.9 °F 35.8 °F 21.9 °F 49% 30.56 in 10.0 mi Variable 5.8 mph - N/A   Clear
11:52 AM 42.1 °F 38.4 °F 21.9 °F 45% 30.53 in 10.0 mi WNW 5.8 mph - N/A   Clear
12:52 PM 43.0 °F 38.2 °F 21.0 °F 42% 30.51 in 10.0 mi WNW 8.1 mph - N/A   Clear
1:52 PM 44.1 °F 41.5 °F 21.9 °F 42% 30.50 in 10.0 mi Variable 4.6 mph - N/A   Clear
2:52 PM 43.0 °F 38.8 °F 21.0 °F 42% 30.49 in 10.0 mi Variable 6.9 mph - N/A   Clear
3:52 PM 41.0 °F 39.0 °F 19.9 °F 43% 30.51 in 10.0 mi Variable 3.5 mph - N/A   Clear
4:52 PM 37.9 °F 33.5 °F 21.0 °F 51% 30.52 in 10.0 mi WSW 5.8 mph - N/A   Clear
5:52 PM 33.1 °F 30.0 °F 21.9 °F 64% 30.53 in 10.0 mi SW 3.5 mph - N/A   Clear
6:52 PM 30.0 °F - 21.9 °F 72% 30.54 in 10.0 mi Calm Calm - N/A   Clear
7:52 PM 28.0 °F - 21.9 °F 78% 30.54 in 10.0 mi Calm Calm - N/A   Clear
8:52 PM 26.1 °F - 21.9 °F 84% 30.53 in 10.0 mi Calm Calm - N/A   Clear
9:52 PM 25.0 °F - 21.0 °F 85% 30.53 in 10.0 mi Calm Calm - N/A   Clear
10:52 PM 23.0 °F - 19.9 °F 88% 30.52 in 10.0 mi Calm Calm - N/A   Clear
11:52 PM 23.0 °F - 19.0 °F 85% 30.51 in 10.0 mi Calm Calm - N/A   Clear